Vertical_Velocity
2 -2 -3 -3 -2 2 2 -3 -5 -4 -4 -2 -1 -0 1 -1 -1 1 -9 4 1 -6 2 2 6 3 1 -3 -2 1 6 3
3 1 -1 3 -2 0 1 -4 -2 -4 -4 -5 -4 1 -2 -1 -4 -1 2 2 2 -5 3 -1 -1 2 2 -1 3 2 2 -1
0 5 1 4 -1 -3 3 -2 -4 1 -4 -0 3 2 4 4 2 -2 1 1 0 5 -1 -7 -3 3 2 -0 -0 1 4 4
-6 2 2 5 -2 -4 1 1 -2 -3 0 3 3 -1 0 2 11 10 -8 2 6 3 1 -4 -3 7 3 -2 -2 -4 7 -1
-5 4 1 2 -2 -3 -2 1 -1 -2 2 2 4 0 -1 8 6 29 -9 7 8 13 3 -1 -3 -3 14 3 -2 7 9 6
-21 -1 -5 3 1 -4 -2 0 -2 -6 -7 -4 -0 -2 -0 -12 1 14 44 -10 18 6 5 -5 -4 1 2 -1 7 -8 -4 4
-1 8 3 2 1 -3 -2 3 -1 -1 -1 -1 0 4 2 4 -2 -6 9 -3 -5 5 3 -1 7 -0 -1 4 -2 -6 2 -9
-6 -3 -4 8 -0 -2 -3 2 -3 -0 1 0 2 -1 -6 -8 -3 -1 -2 -7 10 2 3 10 -7 4 5 7 5 4 0 -4
2 3 -3 5 -1 -2 -4 1 -1 -3 -1 -2 -2 0 -1 -4 -12 7 14 2 -2 29 9 13 -8 16 0 -3 2 -3 1 -2
-3 -3 -1 4 -2 -1 -4 -2 2 -5 -2 -4 -6 -1 3 1 -0 -3 13 4 11 -3 6 26 1 -1 4 1 1 2 -1 1
-4 -10 -3 6 -2 -1 -5 -2 3 -2 -5 -2 -3 -3 0 -0 -3 -1 -4 -0 -3 -1 -3 -2 -2 -2 -1 -1 -2 4 -5 -2
-2 -6 -3 8 -2 -5 -2 -1 1 2 -2 -0 -3 -3 -2 -3 -1 -2 -3 -5 -1 -1 3 5 6 2 -3 3 1 1 -4 2
10 -3 -6 4 2 -0 -2 -2 1 3 -1 -2 -1 -5 -5 -2 -2 -1 0 2 -1 -1 -1 0 -1 -4 -0 -1 -1 -2 1 1
-34 11 -5 -0 3 5 -3 -3 2 1 1 -1 -1 -0 -2 -3 -1 -2 -3 -3 -1 -0 -1 1 1 -2 -3 0 2 3 -2 3
7 51 -7 -2 3 4 1 -3 -3 1 -0 -1 -2 1 -1 2 2 -0 -0 2 -0 1 -1 -4 -3 -4 -1 -2 -2 2 2 1
16 5 28 1 -3 1 2 -5 -4 2 3 -1 1 1 -2 -3 -1 2 1 1 1 1 1 2 -2 -6 -6 0 -1 -2 -6 -3
-9 20 -3 9 5 1 4 3 -2 -1 0 3 2 2 -0 -0 -2 -4 -2 -0 -3 -6 -2 -3 -2 -3 1 1 1 -1 -2 -3
12 1 -38 -51 18 12 -2 5 5 -1 2 2 2 1 2 2 5 3 0 -6 1 -1 0 -0 1 2 6 10 4 -1 -1 6
4 0 2 60 15 19 14 6 2 5 3 -3 -1 0 5 -4 -7 1 3 0 3 4 2 0 0 -1 2 2 6 4 4 1
Height
3060 3061 3062 3064 3063 3060 3056 3052 3048 3048 3050 3052 3054 3058 3063 3066 3070 3072 3076 3084 3090 3097 3102 3108 3111 3116 3121 3124 3130 3134 3137 3139
3055 3055 3059 3060 3060 3057 3053 3050 3048 3047 3049 3051 3053 3055 3058 3063 3068 3072 3075 3080 3085 3090 3098 3102 3108 3112 3117 3120 3125 3130 3132 3134
3050 3050 3054 3057 3056 3054 3051 3048 3046 3045 3046 3048 3051 3053 3055 3057 3060 3065 3070 3074 3078 3083 3090 3096 3102 3106 3111 3115 3120 3124 3128 3130
3044 3046 3050 3052 3052 3051 3048 3045 3044 3041 3043 3044 3046 3047 3048 3048 3050 3053 3058 3067 3073 3077 3084 3091 3096 3101 3106 3109 3113 3119 3124 3126
3040 3041 3044 3048 3048 3048 3046 3042 3041 3040 3039 3040 3042 3041 3041 3038 3041 3043 3052 3058 3065 3072 3078 3084 3091 3096 3099 3105 3109 3116 3120 3122
3034 3036 3040 3043 3044 3044 3044 3040 3038 3037 3035 3035 3039 3037 3039 3034 3033 3040 3042 3053 3058 3067 3072 3079 3085 3091 3096 3099 3103 3107 3112 3116
3028 3031 3035 3038 3039 3041 3041 3038 3037 3035 3031 3030 3033 3034 3033 3032 3030 3034 3040 3047 3055 3062 3068 3074 3081 3084 3088 3092 3096 3100 3105 3108
3022 3025 3029 3034 3035 3037 3038 3035 3035 3034 3031 3028 3028 3030 3030 3031 3032 3034 3038 3042 3050 3057 3064 3070 3074 3079 3082 3087 3091 3094 3100 3104
3017 3021 3025 3029 3031 3033 3034 3033 3032 3032 3031 3028 3027 3029 3031 3031 3031 3036 3039 3044 3048 3056 3061 3064 3068 3073 3078 3083 3087 3091 3096 3102
3013 3017 3020 3023 3026 3029 3030 3030 3031 3031 3030 3029 3027 3028 3030 3032 3034 3036 3040 3045 3049 3053 3056 3063 3069 3072 3075 3079 3085 3090 3093 3097
3006 3012 3015 3018 3021 3024 3026 3028 3028 3030 3031 3030 3028 3028 3030 3032 3034 3037 3040 3044 3047 3052 3056 3061 3066 3070 3073 3077 3082 3086 3089 3091
3002 3008 3011 3014 3016 3020 3023 3025 3026 3029 3029 3030 3030 3031 3031 3032 3034 3038 3041 3043 3047 3051 3056 3061 3065 3069 3071 3075 3080 3084 3085 3089
3000 3003 3007 3009 3012 3016 3019 3022 3025 3027 3029 3029 3031 3032 3033 3034 3035 3037 3040 3044 3047 3050 3054 3057 3061 3065 3068 3072 3075 3078 3082 3084
2997 3000 3002 3005 3008 3012 3016 3019 3022 3024 3027 3028 3030 3031 3034 3036 3037 3039 3041 3043 3045 3048 3051 3055 3059 3062 3065 3068 3071 3074 3076 3078
2992 2997 2997 3000 3004 3008 3012 3015 3019 3022 3024 3026 3029 3031 3033 3035 3038 3040 3042 3044 3047 3049 3052 3054 3056 3059 3062 3065 3066 3069 3071 3072
2993 2992 2993 2996 2998 3002 3007 3011 3014 3018 3020 3023 3025 3028 3031 3033 3036 3038 3041 3043 3046 3048 3050 3051 3053 3055 3057 3059 3061 3063 3064 3065
2990 2992 2990 2990 2995 2996 3001 3005 3009 3012 3016 3019 3021 3023 3026 3029 3032 3035 3037 3040 3041 3042 3044 3046 3048 3050 3052 3054 3056 3057 3057 3057
2986 2989 2985 2987 2989 2993 2995 2999 3003 3007 3011 3014 3016 3019 3022 3024 3027 3029 3031 3033 3035 3037 3039 3041 3043 3044 3046 3048 3049 3050 3050 3050
2982 2980 2984 2985 2986 2986 2989 2992 2996 3000 3004 3008 3012 3015 3018 3020 3021 3023 3026 3028 3030 3032 3033 3035 3037 3038 3039 3041 3042 3042 3042 3041